Theta_e
303 303 303 303 304 304 304 304 305 304 306 303 299 302 293 291 287 303 305 310 309 301 293 296 295 292 296 301 299 301 298 298 300 297 299 297 300 298 296 296 295 296 295 295 293 294 290 292 290 294 295 296 299 302 300 301 299 299 296 299 296 295 290 288 289 294 295 294 297 297 297 297 296 297 299 297 293 294 291 290 291 288 289 286 286 283 287
304 303 303 303 303 303 304 304 304 304 306 302 302 295 291 291 292 296 306 309 307 297 286 287 290 293 297 297 296 301 299 298 296 296 297 296 297 296 296 297 299 296 298 297 293 295 287 293 293 292 296 294 301 301 300 300 298 297 295 293 299 289 289 289 286 286 288 291 293 293 297 295 293 294 296 297 298 297 293 289 290 287 288 289 286 281 287
304 304 303 303 303 303 303 304 304 304 306 305 302 292 293 292 294 296 299 303 302 292 293 291 290 292 292 293 292 294 296 299 298 297 297 299 298 297 296 298 299 297 299 296 297 296 294 290 295 295 297 297 301 299 301 300 297 299 303 297 302 291 290 288 282 280 279 279 281 283 286 289 292 295 295 297 296 295 291 287 289 285 288 289 286 286 292
304 304 304 303 303 303 303 303 304 304 304 305 301 296 292 288 282 289 294 297 295 295 297 294 293 291 291 289 292 294 292 297 299 300 297 299 299 299 299 300 300 297 297 294 294 294 297 294 292 294 294 297 298 300 297 299 298 296 295 299 298 288 290 290 288 286 285 288 291 298 296 292 288 290 292 294 297 297 295 292 289 286 288 287 289 290 291
304 304 303 304 303 303 302 303 303 304 304 304 299 297 294 292 285 287 285 293 293 291 294 293 294 291 294 287 291 289 291 294 296 300 293 298 298 298 298 297 295 295 295 293 293 296 295 296 295 295 295 298 298 298 301 299 299 294 295 296 293 288 288 291 292 291 292 293 293 296 297 292 293 291 291 294 294 294 290 289 287 292 289 284 291 294 290
305 303 303 303 303 303 303 303 303 303 303 304 299 290 293 285 288 292 294 289 285 287 288 292 292 294 294 290 293 290 290 291 289 296 298 299 299 294 296 296 297 296 294 294 290 293 293 294 292 296 297 297 297 296 298 298 296 295 296 297 293 289 286 291 292 291 293 294 294 295 294 294 294 295 294 293 294 293 288 289 293 293 288 286 292 294 292
304 304 303 304 303 303 303 303 303 303 303 303 298 289 292 292 293 292 295 288 291 291 292 293 292 291 292 291 291 289 289 289 292 293 294 295 294 296 289 292 295 295 297 295 291 293 288 288 294 292 292 294 294 292 296 299 300 297 296 296 293 291 287 291 292 290 291 293 293 294 293 293 293 293 294 295 295 294 293 293 294 294 292 294 294 294 294
303 304 303 303 303 303 303 302 302 303 303 302 295 293 289 287 287 287 293 293 291 292 292 291 290 288 291 287 290 290 290 289 292 294 293 289 292 297 292 293 295 295 295 295 292 294 295 294 291 296 295 291 295 294 295 294 294 296 293 294 295 291 287 291 291 287 287 291 293 294 293 293 290 293 294 294 294 294 296 294 294 294 294 295 294 293 293
304 303 304 303 304 304 303 302 302 302 302 297 293 292 294 295 295 295 289 285 288 290 291 290 289 287 290 288 290 291 291 290 293 292 296 293 292 294 291 294 294 296 295 294 294 297 297 297 297 298 298 292 298 294 294 299 292 293 292 291 292 291 287 292 289 285 285 289 290 291 292 291 289 289 291 292 292 290 292 292 296 293 291 293 293 290 292
303 303 304 303 303 304 304 303 303 302 302 296 294 289 297 296 298 297 293 284 289 286 290 290 289 284 289 290 290 290 291 293 293 289 295 296 296 296 296 295 294 293 293 292 295 298 299 299 300 299 301 302 301 301 300 300 297 292 291 295 291 290 289 287 287 284 284 289 291 289 289 287 284 285 290 292 293 294 295 295 296 296 296 291 288 290 297
302 303 303 302 303 304 303 303 303 303 300 295 293 292 294 292 291 292 292 284 286 287 287 286 286 288 291 292 291 293 292 293 293 287 289 296 296 298 297 295 293 291 292 295 297 298 298 299 300 301 301 300 299 300 299 300 300 298 295 291 291 293 291 289 290 284 285 287 287 288 285 278 280 293 296 296 293 293 292 292 294 296 297 294 296 297 299
302 301 303 303 302 303 303 303 303 302 301 298 298 295 296 297 295 294 288 282 283 288 286 284 286 289 289 291 291 290 291 291 292 294 290 294 295 298 297 296 295 288 297 298 299 299 300 301 300 300 299 299 299 299 298 296 297 299 299 295 290 289 290 289 290 286 285 288 287 284 277 279 291 296 298 299 298 297 295 295 296 297 298 298 297 297 298
301 301 302 303 302 303 303 304 303 303 302 299 298 294 297 298 294 291 289 285 282 284 283 284 289 290 291 291 290 291 293 294 294 295 294 293 293 295 297 295 294 295 298 297 298 296 291 288 290 291 291 294 295 296 295 295 296 298 298 298 294 289 288 289 288 288 288 285 284 277 279 289 294 296 297 299 299 298 296 294 297 298 298 298 297 298 299
301 301 301 303 302 302 304 303 303 303 302 301 297 296 298 297 293 291 289 284 283 286 287 286 287 286 287 288 289 290 292 291 292 294 292 295 293 294 296 297 299 300 297 298 295 293 288 289 284 286 286 287 287 286 289 294 295 295 295 297 298 294 291 290 285 289 281 284 284 283 290 288 290 291 292 295 293 293 292 288 293 298 299 299 298 299 300
300 301 300 303 303 301 304 303 302 302 302 301 299 297 297 298 296 293 292 289 282 285 286 281 284 286 288 287 289 286 287 287 287 287 291 294 292 295 296 298 299 298 298 295 290 292 287 286 282 281 283 282 278 281 289 285 290 296 296 296 296 296 289 291 286 284 288 283 281 282 282 279 285 293 297 300 301 300 300 294 290 299 300 301 300 299 300
301 300 301 302 303 302 302 303 302 302 302 302 298 297 297 298 298 296 292 288 285 279 284 288 290 288 286 286 288 286 285 285 286 287 285 285 285 289 292 295 297 296 295 294 292 288 286 282 279 280 277 280 284 284 282 287 287 290 295 295 296 296 295 292 287 285 286 283 280 280 278 282 290 292 295 299 300 301 301 293 287 297 298 300 300 299 300
301 300 301 301 301 302 301 304 303 302 303 302 298 297 296 299 297 294 292 290 287 281 288 291 291 289 287 285 286 286 287 284 286 282 282 283 285 286 289 294 298 296 293 290 289 285 283 282 282 282 282 284 280 281 287 285 284 286 289 292 291 290 290 290 286 282 285 283 281 279 285 284 290 294 296 297 300 304 296 283 284 297 299 299 299 298 299
299 299 300 301 302 301 300 303 302 303 302 302 299 297 296 299 299 297 292 289 284 284 288 291 288 285 284 286 284 288 290 287 286 286 284 286 286 285 285 289 287 295 296 286 286 284 282 281 278 279 278 285 285 285 278 284 282 284 285 286 286 286 287 287 283 284 284 284 282 285 285 290 293 293 296 299 304 298 286 280 288 295 296 298 299 299 299
299 299 300 300 301 302 301 302 303 302 302 302 299 298 297 299 299 297 293 289 286 281 288 292 293 289 291 293 289 290 289 288 286 284 282 283 284 286 286 287 292 284 290 284 285 282 280 280 285 282 279 282 285 279 285 281 280 286 286 284 284 285 286 286 287 284 283 284 282 282 286 291 293 296 297 300 294 284 283 289 291 292 292 293 294 294 296
299 299 300 300 301 300 301 301 303 303 303 302 299 294 296 299 299 297 291 286 288 285 288 289 290 288 291 288 286 286 287 288 287 285 283 280 287 287 285 281 288 288 287 287 281 284 281 278 281 284 281 281 282 286 283 283 286 283 284 287 285 285 284 282 283 286 286 285 282 280 277 288 290 293 293 294 288 289 291 291 293 293 293 294 294 294 295
298 299 300 300 299 300 301 302 300 301 302 302 301 295 294 299 299 298 297 293 287 283 285 292 293 291 291 290 291 291 289 285 287 284 286 286 290 287 277 277 284 285 282 285 279 280 282 280 281 281 284 284 284 285 279 282 283 287 286 285 285 291 283 283 286 288 282 282 280 281 288 290 294 293 288 292 295 295 294 293 290 294 294 294 294 294 295
298 298 298 300 299 300 301 301 301 301 303 301 300 296 292 296 298 298 298 296 289 285 287 290 291 291 293 294 294 294 293 292 293 293 288 285 290 288 286 287 285 286 286 287 285 283 285 284 285 282 280 282 286 281 283 281 278 285 286 286 280 289 286 287 283 290 287 284 287 291 291 292 294 294 294 295 296 295 294 293 292 292 294 295 294 294 295
297 298 298 300 299 299 298 300 300 301 302 302 300 294 292 295 297 299 297 291 293 294 292 292 293 294 295 296 298 299 299 300 298 297 294 288 286 288 286 286 286 291 289 290 286 285 285 285 282 285 283 284 282 282 283 282 280 284 281 289 287 293 289 288 287 286 291 289 288 290 289 291 291 295 296 295 295 295 292 291 291 293 295 296 294 294 293
297 298 298 299 300 299 299 302 302 301 302 302 300 295 293 296 297 297 294 293 288 285 288 291 288 284 286 288 294 294 296 296 296 297 298 295 285 285 288 289 290 289 287 291 293 287 286 286 284 286 279 283 285 281 278 278 281 285 284 284 287 289 289 288 285 287 286 280 292 288 289 292 293 293 294 293 293 293 293 291 292 293 295 295 294 293 292
297 298 297 298 299 298 299 301 301 300 301 301 299 297 297 296 297 295 290 284 284 283 278 282 284 290 293 295 297 291 295 297 299 297 296 293 291 286 284 289 293 289 287 290 291 288 286 282 283 283 278 284 286 279 285 281 280 286 281 283 285 284 291 285 284 285 284 284 289 290 292 294 294 293 291 292 293 293 292 292 293 294 295 293 292 290 289
296 298 297 297 298 298 299 300 300 301 300 302 299 294 293 293 296 296 293 292 290 287 280 279 283 293 294 292 291 294 298 297 296 296 295 295 295 293 291 292 291 294 293 291 288 286 285 284 284 283 281 281 288 281 281 284 283 288 283 283 288 287 288 280 284 283 285 288 288 289 290 292 293 293 293 293 293 293 292 293 293 294 293 293 293 291 291
296 297 297 297 298 298 298 299 300 300 301 301 298 296 294 295 297 294 291 289 285 280 282 280 284 285 289 288 293 295 296 295 295 295 295 295 294 294 292 291 290 291 289 288 290 288 286 284 284 281 284 283 286 284 285 284 284 282 282 285 289 286 282 286 285 281 281 281 284 286 282 282 289 291 293 293 295 293 293 293 293 294 294 294 292 293 291
296 297 297 297 297 297 298 300 299 300 301 300 298 295 295 294 295 296 296 294 288 281 281 281 282 283 288 286 292 293 292 294 294 294 293 294 294 293 292 291 289 288 287 286 283 284 283 281 280 285 286 286 284 281 286 286 286 283 282 284 287 284 284 285 281 280 280 286 288 290 289 289 291 293 295 295 296 295 294 294 294 294 295 295 294 292 292
295 295 296 296 297 298 298 299 300 299 300 299 294 292 291 294 295 296 295 296 292 287 285 285 286 284 279 282 293 291 293 293 292 292 292 292 293 292 291 290 289 289 289 287 285 285 284 283 287 284 283 287 285 281 283 279 279 278 282 286 287 288 289 287 286 286 286 288 288 290 289 288 291 293 294 295 296 296 294 294 295 294 294 294 293 292 291
295 296 296 296 297 297 297 299 300 300 300 294 290 286 284 285 292 293 296 294 293 290 283 280 277 280 286 282 281 289 290 292 292 292 291 290 290 290 290 290 289 289 287 286 285 281 284 284 285 287 288 292 283 283 280 280 279 280 286 287 289 289 290 290 290 287 286 290 291 291 290 291 293 294 295 296 296 294 293 293 293 293 294 294 292 292 291
296 296 296 298 298 298 298 299 300 299 297 290 287 282 280 277 285 295 296 294 295 290 286 284 280 285 281 283 285 286 288 289 289 289 290 290 290 290 290 290 288 288 284 285 284 284 286 282 283 284 289 289 286 281 280 279 277 280 284 286 287 288 288 288 291 291 291 291 292 293 292 292 293 293 293 294 294 294 292 291 292 290 291 290 291 291 291
296 296 296 297 297 298 298 300 301 299 292 288 286 284 285 288 291 294 296 296 294 288 284 279 279 278 279 282 281 284 288 289 289 287 288 290 286 289 287 289 286 289 287 284 285 284 282 284 284 284 284 288 287 281 282 280 277 279 285 286 287 288 289 288 289 290 291 291 291 289 289 290 292 290 290 293 293 293 292 292 292 292 290 290 290 289 289
296 296 296 297 297 297 297 299 300 296 290 292 296 297 297 298 297 296 296 293 289 285 287 282 276 279 277 278 281 281 286 285 284 285 283 289 285 288 283 287 287 286 289 285 281 281 285 284 284 282 284 289 283 281 280 278 280 284 285 286 287 287 287 289 289 289 290 290 287 284 285 287 289 291 292 291 290 290 290 290 291 291 288 287 286 287 286
296 296 296 297 297 297 299 300 298 296 295 290 286 287 295 298 296 296 293 290 285 283 284 280 276 275 276 281 277 281 286 282 281 284 280 286 287 286 283 284 285 282 285 282 284 283 285 284 282 282 284 283 285 281 276 280 284 284 285 287 280 277 282 285 288 288 278 274 275 276 278 280 284 287 289 290 290 291 291 289 288 286 286 286 286 287 287
296 297 296 297 297 298 299 298 292 288 285 287 287 289 296 297 296 296 292 288 281 279 280 278 281 276 273 273 274 279 284 282 280 283 281 283 287 283 284 280 283 279 281 287 282 282 281 281 284 280 278 283 280 276 279 281 282 284 284 279 270 272 275 278 281 273 269 270 269 272 275 279 281 283 285 287 288 289 288 287 287 285 285 286 287 287 286
297 297 296 297 297 296 294 292 287 286 284 285 285 293 298 297 296 291 287 286 285 281 279 278 279 275 276 271 271 277 285 280 283 282 280 284 281 285 283 282 276 280 283 282 278 281 279 284 282 275 281 277 275 278 280 278 278 275 270 267 266 266 266 265 266 266 266 267 268 272 277 276 275 279 283 285 285 283 281 284 285 284 284 284 285 286 286
295 297 297 296 294 288 283 284 288 287 286 288 292 296 295 291 287 287 286 285 285 286 281 279 276 277 278 276 279 279 282 275 283 279 281 279 278 283 281 279 276 282 280 278 279 278 282 287 280 276 276 275 277 271 268 268 268 267 266 264 264 264 264 265 264 264 264 266 271 276 269 268 270 272 272 272 271 270 271 273 275 278 281 283 284 284 285
296 296 291 287 285 280 279 281 283 291 296 295 293 287 285 287 280 281 281 279 283 284 280 282 277 279 279 278 273 282 281 278 283 277 279 282 279 277 282 279 278 281 272 275 278 284 282 280 276 276 277 277 267 264 264 264 265 264 263 262 262 263 263 264 263 263 264 267 271 269 265 265 266 267 266 266 265 266 267 269 270 271 275 280 283 284 284
293 288 286 285 283 280 281 282 293 295 292 289 286 281 277 280 280 276 276 279 280 276 281 279 276 277 278 277 278 284 280 279 277 279 275 281 277 273 280 272 279 279 274 274 277 285 275 276 277 276 275 276 271 264 261 263 262 262 261 261 261 261 262 262 263 262 262 263 265 263 262 262 263 263 264 263 263 264 265 266 267 267 268 271 276 280 282
286 284 281 278 278 279 286 291 295 290 287 279 280 280 272 275 276 271 280 273 272 277 279 275 279 278 280 277 276 276 284 279 275 275 277 279 283 274 278 276 278 275 269 271 275 282 275 272 275 275 273 279 271 260 260 259 260 260 260 259 260 260 260 260 261 262 262 262 263 263 264 264 264 263 262 261 261 261 262 262 263 264 265 267 270 272 276
283 281 280 279 283 286 286 286 284 283 280 277 275 274 274 270 271 274 275 271 271 273 279 279 278 276 278 279 280 277 284 283 280 281 280 275 283 280 274 269 281 270 270 270 277 276 275 272 273 272 275 267 260 259 257 258 258 259 258 258 258 259 259 259 260 260 260 260 260 261 262 262 262 261 261 260 260 260 260 259 260 261 263 264 265 266 269
284 283 285 287 286 286 285 282 280 277 276 277 273 269 271 272 273 270 272 271 271 274 273 277 274 276 276 280 279 281 279 280 281 280 278 273 280 275 272 273 273 268 266 274 278 275 274 269 270 272 267 257 259 255 256 255 256 255 256 257 257 257 257 258 258 259 259 259 259 259 260 261 260 260 260 259 259 259 258 258 259 260 262 263 264 265 268
290 288 287 284 283 279 280 276 277 277 272 269 269 266 269 267 270 270 269 273 271 274 276 280 280 282 280 281 277 281 279 282 279 277 276 273 280 276 272 270 268 264 271 277 273 271 269 268 268 271 258 256 255 254 254 254 254 255 255 256 256 256 256 256 257 257 258 258 258 258 259 259 259 259 260 259 259 258 258 259 259 259 261 261 262 264 266
286 285 281 279 278 277 278 269 277 273 269 270 269 265 267 267 268 270 268 270 272 274 277 275 276 277 274 280 278 278 280 280 283 278 275 277 274 272 272 267 268 275 276 271 271 268 270 272 272 264 257 256 255 255 253 253 253 253 253 255 255 255 256 256 257 257 256 258 258 258 258 257 258 259 259 259 258 258 258 258 259 260 260 260 262 264 265
280 276 276 275 273 275 273 266 272 270 267 269 273 269 270 268 270 270 271 272 275 275 278 279 279 278 275 276 278 278 281 276 282 275 271 275 271 274 269 269 273 274 270 268 268 269 267 270 261 254 257 254 255 253 254 253 253 252 252 253 253 254 254 254 255 255 255 256 256 256 256 256 257 257 258 258 258 258 257 257 258 258 258 259 261 263 264
277 275 274 271 267 269 269 265 266 265 269 272 269 271 273 274 274 270 263 261 273 277 276 278 279 277 274 276 275 275 278 277 274 274 274 273 270 268 273 275 273 268 268 267 265 265 269 270 260 258 255 254 253 253 252 253 253 253 252 251 252 253 253 254 254 254 255 255 255 255 255 256 256 256 256 257 257 257 257 257 257 257 258 258 260 261 261
275 273 273 272 268 267 269 266 266 264 263 261 261 261 266 264 263 264 260 262 269 270 272 273 277 277 274 272 274 273 274 276 272 274 274 268 268 270 275 269 264 267 263 263 264 265 270 261 257 256 253 253 252 252 252 252 253 252 252 252 252 253 253 254 254 254 254 255 255 255 255 255 255 255 255 255 256 256 256 255 255 256 257 257 258 259 259
270 273 273 268 265 267 266 260 260 260 261 261 261 262 262 263 267 263 260 260 261 266 275 275 274 275 274 277 276 273 272 273 272 271 273 271 271 265 266 266 267 269 268 265 268 269 262 257 256 254 253 252 252 252 252 252 252 252 252 252 252 252 253 253 253 254 254 254 254 255 255 255 255 255 255 255 255 255 255 254 255 255 257 258 258 258 258
267 266 266 263 262 261 260 262 263 261 261 261 262 262 264 264 261 259 259 261 264 266 266 272 274 275 270 272 273 273 270 273 269 269 270 267 264 262 263 261 263 263 267 270 267 258 257 255 254 253 252 252 252 252 252 252 252 252 252 252 252 253 253 253 253 254 254 254 255 255 255 255 255 255 255 255 254 254 255 255 255 255 255 256 257 258 258
264 260 258 262 263 261 264 265 265 262 262 261 262 261 261 261 259 258 258 259 261 263 269 274 277 273 269 271 267 269 270 271 270 271 267 265 266 265 263 260 262 265 267 258 256 255 255 254 254 252 252 251 252 252 252 252 252 252 252 253 253 253 253 253 253 254 254 254 255 255 255 255 255 255 254 254 254 255 255 255 255 254 254 255 255 256 256
259 255 250 248 256 260 262 265 264 261 260 261 259 257 258 258 257 258 257 256 258 265 272 272 271 269 268 267 267 265 268 272 269 268 267 267 268 265 264 265 267 265 258 253 254 254 254 253 253 252 251 251 251 252 252 252 252 252 253 253 253 253 253 254 253 253 253 254 255 255 255 255 255 255 256 256 255 255 255 255 255 255 255 255 255 255 255
259 256 254 253 253 252 254 257 257 257 258 257 255 255 257 256 255 256 256 257 258 268 270 269 268 267 266 265 267 268 268 268 266 265 263 264 262 265 266 265 260 254 254 253 253 253 253 253 252 251 251 251 252 252 252 252 252 252 253 253 253 253 253 253 253 253 253 253 253 254 254 255 256 256 256 256 255 255 254 254 255 255 255 255 255 255 255
Wind_Speed
19 17 16 17 16 15 14 13 12 10 10 5 4 4 5 7 5 5 1 5 12 10 9 8 9 9 9 7 9 7 4 8 8 9 9 10 9 6 8 10 8 7 7 6 3 5 0 3 5 2 4 9 8 3 5 5 7 2 2 2 3 6 3 4 9 5 4 4 3 4 1 2 7 8 7 7 13 12 10 6 2 4 5 7 7 11 12
20 19 19 18 16 16 15 15 14 12 12 6 4 6 6 7 6 2 2 1 10 11 14 12 14 11 7 9 8 9 10 8 9 9 12 9 9 13 8 9 13 7 11 7 8 10 3 7 7 7 8 6 3 3 0 4 3 5 1 3 3 4 2 6 5 6 4 6 3 5 2 3 7 9 10 8 6 3 1 2 1 5 8 7 8 12 9
22 21 21 20 19 18 17 16 16 15 13 8 6 6 5 4 4 4 2 1 6 12 9 11 11 11 14 12 16 12 9 9 12 11 12 9 7 8 11 11 10 10 9 11 10 12 13 2 10 13 7 8 4 3 5 6 6 6 2 4 2 2 2 6 7 10 11 11 9 10 9 8 5 6 10 14 16 13 3 8 5 9 6 14 11 12 14
24 23 22 22 20 19 18 17 16 16 14 12 6 6 5 7 5 6 4 3 2 5 4 5 8 11 13 13 14 15 13 9 11 13 12 12 10 10 6 10 11 12 11 12 14 13 16 14 4 10 9 10 2 1 2 5 5 3 7 3 5 2 1 4 9 10 12 11 4 7 8 7 8 10 14 14 13 15 12 4 8 12 10 14 13 14 16
25 25 24 23 22 20 19 18 18 16 15 14 8 6 5 5 6 8 9 4 7 6 7 9 7 11 13 10 9 16 18 12 8 14 9 13 13 10 11 8 11 12 14 15 14 16 15 16 13 11 12 7 3 3 2 4 2 6 2 1 4 1 3 8 11 15 17 17 18 10 8 9 13 13 13 15 14 12 11 13 15 14 9 18 13 17 17
24 26 25 25 23 23 22 21 20 19 16 15 7 7 8 7 8 6 8 7 10 11 11 12 13 11 12 11 8 13 15 15 12 11 14 11 15 10 9 13 14 14 17 14 12 15 17 15 15 12 9 5 5 2 3 3 6 8 1 2 4 3 7 10 10 13 16 17 18 16 15 13 11 12 13 14 15 14 13 15 18 17 13 17 15 16 19
25 26 27 26 25 24 24 23 21 20 19 15 9 8 9 8 3 7 7 11 9 13 5 11 14 16 16 10 13 12 15 18 16 10 12 13 11 14 10 17 19 19 16 14 13 14 10 13 14 7 6 10 5 4 3 6 7 6 3 2 1 2 7 9 8 13 14 16 19 17 16 15 14 15 17 15 13 17 19 19 21 23 20 19 19 21 23
27 26 27 26 26 25 26 24 23 21 19 14 10 12 10 12 9 7 6 6 8 8 12 9 12 12 13 11 16 15 15 17 15 13 12 12 14 14 17 15 16 18 18 17 13 13 13 10 11 10 9 4 8 8 9 2 3 3 6 6 2 4 5 6 6 5 13 18 17 17 17 14 15 13 15 14 15 15 16 17 18 20 20 20 22 23 24
25 29 26 27 26 27 27 25 25 24 20 10 12 11 11 6 9 5 6 8 9 8 11 12 13 10 10 13 13 14 18 17 15 14 13 14 11 15 19 18 15 14 17 19 19 16 15 15 15 12 12 13 10 9 3 11 5 4 3 3 3 8 2 2 3 8 10 15 15 18 16 11 11 14 17 19 20 20 17 14 12 13 16 20 18 17 19
25 27 29 30 29 28 27 27 27 26 23 10 8 13 11 9 4 2 3 8 8 10 10 13 11 15 11 14 18 14 20 14 13 11 12 15 16 13 14 14 11 14 15 17 17 14 14 15 12 8 5 3 5 3 8 5 4 1 6 7 5 7 4 5 4 8 11 13 12 11 10 7 9 13 21 24 23 18 15 15 16 21 21 17 14 17 17
26 25 26 26 29 28 28 29 28 29 19 14 12 11 12 10 8 6 6 7 7 10 10 11 15 12 13 17 16 15 15 16 16 14 8 11 14 12 11 12 13 11 14 3 4 3 5 5 5 5 6 7 6 5 6 7 5 8 6 3 3 9 9 8 7 7 5 12 9 5 7 15 12 12 21 16 18 19 19 19 22 23 18 15 17 17 16
23 26 24 28 29 29 31 30 30 31 25 15 12 10 9 9 8 5 8 12 11 10 13 12 16 13 18 18 19 17 17 17 17 16 15 8 9 10 10 9 8 7 4 4 2 6 2 2 5 4 7 9 9 7 9 12 12 9 9 8 4 7 6 10 6 7 8 7 6 9 17 13 9 12 11 14 18 19 21 24 25 23 18 17 19 20 22
23 25 25 26 29 31 32 28 31 29 29 16 13 13 13 12 9 8 10 11 12 11 13 13 15 16 13 13 18 19 15 12 12 15 15 13 6 4 8 11 13 5 5 5 5 4 3 0 2 4 8 7 8 12 15 16 17 15 14 13 11 6 8 6 9 7 5 7 8 13 6 3 8 10 10 11 15 19 17 20 22 23 20 18 19 23 26
23 24 26 25 27 32 29 31 31 32 33 24 15 13 12 14 10 9 9 10 13 11 12 10 10 11 13 13 15 14 9 6 5 5 10 5 10 9 4 2 2 6 3 3 3 2 2 1 4 3 3 3 3 7 10 15 18 17 19 17 15 13 10 8 9 8 10 8 14 18 7 16 12 11 10 11 12 10 14 13 14 18 18 18 19 23 23
25 24 25 24 24 31 31 31 33 33 33 31 17 15 14 12 11 10 8 9 12 11 9 14 13 15 14 7 10 8 8 6 5 3 1 2 3 5 5 4 3 3 2 2 2 1 3 2 4 4 5 7 7 6 4 5 5 19 21 19 17 17 14 7 10 8 11 14 15 12 12 16 13 18 20 16 11 12 10 11 15 12 14 14 19 23 26
26 25 24 24 24 28 31 30 31 34 31 30 19 14 12 13 12 10 10 9 8 14 15 15 14 13 12 9 15 11 10 9 9 7 4 2 3 0 1 2 1 1 1 2 2 2 3 6 8 7 6 6 2 3 3 3 3 4 19 20 19 17 17 15 13 8 9 11 14 14 13 10 5 16 15 13 11 11 8 10 13 7 16 17 18 20 22
26 26 24 24 24 26 31 29 31 33 31 34 16 14 13 15 14 12 11 8 9 11 3 12 11 6 4 8 9 11 10 11 10 10 10 10 5 4 1 2 1 5 5 4 3 3 6 9 7 8 8 2 2 5 3 3 4 1 1 11 15 15 13 12 14 15 14 13 13 13 7 8 7 10 10 6 4 3 4 15 12 7 19 19 13 16 18
27 28 26 24 24 25 30 30 32 32 34 36 18 13 13 17 15 13 10 8 9 9 10 5 13 11 13 11 11 8 9 5 7 1 5 4 4 3 3 3 2 3 6 7 5 7 9 9 12 10 12 6 2 1 9 1 4 2 3 4 7 12 13 13 17 14 19 20 16 11 9 6 9 12 14 1 3 5 10 15 2 10 10 10 9 12 9
27 28 28 27 25 24 27 31 31 34 34 34 21 11 10 14 17 15 10 10 10 13 10 11 10 14 12 9 7 7 6 11 8 8 6 6 5 5 7 1 2 4 6 8 7 9 7 8 5 8 9 7 5 8 1 10 7 5 5 3 3 5 5 7 13 15 18 16 16 13 9 3 1 6 8 2 4 11 10 2 6 7 13 16 10 10 12
28 28 28 28 24 26 28 29 30 32 31 35 23 13 13 16 17 19 15 12 8 9 9 12 11 17 13 13 9 8 5 8 9 9 8 6 2 7 3 4 3 2 7 6 11 7 10 10 9 5 11 10 9 3 9 10 5 7 2 3 7 4 5 5 9 6 10 10 13 12 14 1 5 6 6 3 6 3 3 2 11 10 12 14 15 7 5
29 29 29 27 27 27 27 27 32 32 33 36 25 12 10 11 16 18 15 11 8 10 11 9 12 16 16 16 15 14 13 11 10 10 8 4 5 8 7 7 9 8 8 9 10 12 6 10 12 7 4 7 6 7 10 8 9 6 10 7 7 5 9 7 7 7 9 10 11 7 1 3 2 3 2 5 6 6 6 6 12 12 9 11 13 11 4
28 26 29 27 27 27 25 25 30 32 31 35 30 13 11 13 16 15 14 12 11 6 2 5 6 9 13 13 13 14 14 14 12 9 7 6 5 6 2 4 1 3 3 4 4 4 6 4 4 8 10 8 5 12 5 10 13 1 1 3 14 10 16 8 13 3 6 5 4 2 1 4 4 3 6 9 10 7 6 5 7 9 10 7 6 14 12
31 28 29 27 27 27 28 26 29 30 33 35 26 14 12 13 12 14 11 10 4 1 1 2 4 3 2 3 0 1 2 3 1 3 8 9 8 4 6 4 4 1 1 2 4 4 2 5 9 5 8 7 8 8 9 11 9 5 9 7 9 5 2 3 2 4 4 6 8 9 8 9 10 6 4 7 7 8 5 6 9 8 10 8 8 13 11
28 25 29 27 27 29 28 25 27 29 31 33 26 14 13 13 14 13 10 9 10 8 3 3 7 11 12 16 11 2 3 5 4 4 1 3 7 8 6 7 4 2 1 0 3 1 1 1 2 2 4 3 2 8 8 9 9 6 7 8 4 2 5 2 2 2 5 6 6 5 6 9 8 9 4 5 8 9 7 5 8 9 10 11 6 7 9
31 28 30 30 27 27 29 25 27 29 33 34 27 14 8 10 13 16 14 11 11 12 8 7 12 9 8 9 6 5 9 5 4 5 4 5 8 9 7 1 3 5 4 3 2 1 2 3 3 4 7 3 4 8 4 8 7 3 10 5 5 3 0 3 3 5 8 8 11 14 12 8 5 6 8 12 9 7 3 7 8 8 10 9 8 5 8
30 28 30 30 28 28 28 27 28 29 34 35 25 13 13 14 15 16 12 5 3 6 12 10 6 7 8 9 11 7 6 7 6 7 8 8 9 11 8 3 1 2 1 3 2 4 4 6 5 7 8 5 6 5 8 7 8 4 4 5 6 4 7 5 2 8 6 11 14 15 14 11 9 10 8 7 7 7 8 8 9 10 11 13 12 6 9
30 28 30 29 27 28 30 26 26 31 33 32 21 14 11 9 14 17 17 14 11 4 9 10 5 1 5 12 9 7 7 9 8 9 9 10 11 10 10 9 9 3 3 2 3 3 4 6 7 9 7 7 3 5 4 6 5 5 9 8 7 9 9 8 8 11 8 8 8 5 12 9 8 8 11 10 9 7 9 9 11 12 14 13 13 13 8
28 28 30 30 28 29 29 28 27 32 32 31 19 13 10 12 14 16 14 13 13 3 10 12 8 4 3 3 7 8 6 9 10 11 11 12 11 10 11 12 6 7 7 7 7 7 7 9 10 5 5 3 5 7 5 6 4 8 9 11 10 12 9 7 9 8 10 9 10 8 12 13 11 13 12 14 13 10 9 10 13 15 15 14 11 13 13
29 31 28 29 28 27 28 28 27 30 33 26 12 11 7 7 10 11 12 9 2 2 6 5 5 7 6 4 9 8 9 11 12 12 11 11 11 12 13 13 10 9 6 4 4 7 8 9 6 8 6 2 4 7 5 10 10 13 10 13 14 13 12 17 15 15 16 14 15 14 12 12 12 14 15 14 11 10 9 9 14 15 15 14 12 11 10
31 31 28 28 26 25 28 29 29 31 29 15 10 4 6 2 7 12 11 11 8 3 5 9 5 4 3 4 2 7 8 10 11 12 13 11 12 12 12 12 11 10 4 6 7 9 8 6 6 5 4 3 3 2 6 7 11 11 10 12 13 14 12 12 12 13 11 10 12 12 13 12 10 12 13 12 10 6 8 12 18 17 15 12 10 12 9
27 28 29 28 26 26 28 31 29 29 26 13 12 5 6 6 6 11 14 12 8 7 5 4 4 4 2 1 2 6 10 8 10 10 12 12 11 11 8 8 4 5 7 5 6 6 4 5 5 5 4 9 5 4 6 8 11 10 11 12 12 12 9 8 7 7 8 11 14 14 12 10 8 12 15 16 12 5 8 10 14 12 12 8 11 11 12
29 29 29 27 26 26 29 30 28 29 16 15 16 10 6 6 14 19 17 11 5 5 10 10 6 3 3 2 1 2 6 9 7 4 4 6 5 6 4 9 6 8 7 6 6 4 6 6 7 4 5 8 9 5 6 10 12 12 11 12 10 9 7 8 9 10 9 9 10 13 14 13 11 12 12 17 11 4 7 10 13 13 11 8 10 9 8
26 27 27 25 26 28 31 29 27 21 15 9 9 11 14 21 27 23 14 11 5 0 1 5 5 4 2 4 4 2 4 6 3 4 5 7 5 7 4 6 5 5 6 4 4 4 4 6 6 10 10 6 4 1 7 11 11 10 14 12 11 9 8 9 10 12 13 8 8 7 11 12 14 15 14 11 11 9 8 10 12 9 7 10 13 12 9
26 27 27 27 26 29 30 26 32 28 16 9 4 0 8 24 27 27 16 9 4 1 2 3 4 5 4 3 4 3 5 7 6 8 6 5 4 5 5 6 6 5 5 7 4 4 3 3 7 8 4 5 5 6 11 10 13 14 14 13 5 7 7 8 10 8 7 9 9 8 11 14 15 15 16 14 14 15 11 5 6 9 11 11 13 14 9
28 27 27 28 27 27 26 28 18 11 10 8 5 1 11 29 26 28 21 11 8 3 3 1 2 8 4 2 4 5 3 2 7 8 7 5 3 6 5 4 6 6 5 5 3 5 7 6 3 4 8 5 7 8 8 10 12 12 8 4 10 10 9 8 7 8 12 10 11 12 13 14 14 14 14 14 14 14 12 8 6 7 10 12 12 9 4
27 28 27 26 24 22 15 18 9 10 5 7 6 10 26 27 27 14 7 4 2 5 6 5 6 9 8 7 6 3 5 4 5 3 1 3 1 2 2 4 5 6 1 5 5 5 7 4 4 7 5 7 10 9 5 2 4 5 7 6 7 6 4 5 12 17 15 14 11 13 9 10 11 14 13 12 11 12 15 14 10 5 8 12 12 10 6
29 30 29 26 14 5 4 4 5 5 8 9 15 23 23 16 7 6 4 2 2 2 4 8 8 10 10 5 3 2 8 8 7 3 5 4 5 3 4 4 7 3 4 4 5 7 7 5 6 7 7 10 5 6 6 5 4 4 4 3 3 3 4 5 7 11 15 15 11 4 7 11 11 9 12 12 13 12 13 13 14 17 17 16 13 11 9
23 19 11 8 7 6 3 1 5 15 29 30 24 12 3 3 5 4 3 3 1 1 1 3 7 3 2 5 4 7 5 5 6 6 4 4 4 2 3 4 4 4 4 6 8 6 2 3 5 7 9 1 7 6 5 5 4 4 3 4 3 4 5 6 7 8 11 17 18 15 17 14 11 7 8 14 13 15 14 12 12 12 15 17 16 13 11
19 9 6 3 7 5 7 9 19 34 19 7 3 4 2 0 5 3 3 2 2 2 1 3 5 2 7 7 5 4 1 5 6 5 5 6 4 3 3 3 3 3 4 2 4 9 3 5 5 5 10 4 4 3 3 5 3 3 3 4 5 5 6 6 6 5 5 6 8 7 6 8 12 16 10 10 12 11 10 11 12 12 13 15 17 17 14
9 8 7 4 3 4 8 20 33 19 6 5 1 3 4 1 4 3 2 4 2 0 3 5 3 4 7 10 10 5 2 5 9 9 7 5 1 3 3 2 2 3 4 6 3 5 4 5 6 4 8 5 3 5 4 5 4 4 4 5 7 7 7 7 8 7 9 11 11 11 11 12 12 13 14 12 11 14 14 10 8 10 12 13 16 17 18
5 6 4 6 9 7 6 5 4 4 4 3 2 2 2 3 2 1 3 3 2 2 0 2 4 2 0 4 9 8 3 2 2 2 3 3 2 3 2 2 1 3 3 4 2 3 2 1 3 5 7 2 2 5 5 5 4 5 5 6 7 7 8 8 9 9 9 10 9 9 9 10 11 12 12 13 13 12 12 13 13 12 13 14 14 14 15
5 7 7 9 9 10 7 4 2 4 2 1 3 3 2 2 2 3 1 3 4 3 2 3 6 8 7 7 5 4 2 0 1 1 2 3 3 3 2 1 1 2 2 2 2 1 1 2 2 6 1 2 2 3 4 6 6 8 8 7 7 7 8 9 10 10 8 9 10 10 10 10 12 12 11 12 12 11 11 12 14 14 13 13 12 13 12
27 20 11 8 4 3 0 4 2 1 4 3 3 3 1 5 1 4 3 1 2 2 4 2 1 5 3 2 3 3 2 2 2 1 1 3 2 1 1 0 1 1 2 3 1 2 3 3 3 3 4 2 3 2 2 4 7 7 8 7 7 8 9 10 10 10 10 9 10 10 10 11 12 12 11 12 14 17 14 12 12 13 11 11 12 11 11
10 7 7 1 4 0 1 5 1 3 3 0 5 7 4 5 1 2 2 4 4 4 4 9 8 11 9 0 3 4 2 1 1 1 2 1 2 2 2 1 3 0 3 0 1 4 5 3 1 2 2 0 0 2 5 6 6 7 7 7 8 9 9 10 10 10 10 8 8 8 9 10 12 11 10 10 11 15 17 15 12 11 13 12 11 9 7
7 4 3 2 4 1 2 2 2 2 4 3 3 2 4 9 9 8 6 1 2 6 7 5 9 9 7 1 3 2 2 3 1 2 3 3 2 2 3 2 1 1 2 2 1 1 2 4 2 1 1 3 4 4 5 5 6 6 9 11 10 9 9 10 10 10 10 9 10 10 10 10 11 11 10 10 11 11 12 13 12 12 11 11 11 9 7
5 4 3 6 4 4 2 2 2 3 1 1 1 2 6 4 6 4 2 1 2 8 10 9 8 7 6 0 3 4 3 2 3 1 2 1 3 4 2 1 2 2 1 1 2 6 6 1 2 0 2 4 5 6 6 7 7 7 8 8 10 10 10 10 10 10 10 10 10 10 10 9 9 10 11 11 10 10 10 11 11 12 12 11 10 8 7
4 3 3 2 5 0 1 3 1 1 2 3 2 3 3 4 4 5 2 3 2 2 4 3 2 4 8 3 3 2 1 1 2 2 3 2 2 1 1 2 2 3 3 4 4 4 2 2 1 2 2 4 6 6 7 7 6 6 7 8 9 10 11 10 11 10 10 11 11 11 10 9 10 9 10 10 9 8 9 10 11 12 11 10 10 8 6
4 0 2 4 3 1 2 1 2 4 4 4 3 3 1 1 5 4 4 4 3 1 8 7 7 5 5 1 1 4 2 0 2 0 1 1 2 2 1 1 3 2 2 2 6 1 2 2 1 1 2 3 5 7 6 6 7 7 8 8 9 10 10 10 11 11 11 11 11 11 10 10 9 9 9 9 11 10 9 10 10 10 10 9 8 7 5
5 3 4 4 2 2 3 2 4 5 4 4 3 3 3 6 6 4 4 4 1 2 2 1 3 5 3 1 2 3 2 1 3 3 2 0 1 3 3 4 3 3 3 2 1 3 1 2 0 1 2 3 4 4 5 6 6 7 8 8 9 9 10 9 10 11 11 10 10 10 11 10 10 9 8 8 8 9 9 10 9 8 9 10 9 7 5
6 7 8 4 4 5 1 2 4 6 3 2 2 4 4 7 6 3 5 2 3 2 2 4 3 4 1 1 2 1 1 0 1 1 2 3 3 1 2 2 4 6 2 1 1 2 2 0 1 2 2 4 4 5 6 6 7 8 8 8 8 8 8 9 10 10 10 10 11 11 11 10 8 7 8 8 8 9 9 8 9 8 9 9 9 8 7
4 7 4 4 2 2 1 2 4 7 5 2 3 2 3 3 3 2 5 3 4 2 1 3 3 3 3 2 2 3 1 2 2 2 2 3 2 3 3 6 4 1 2 3 3 1 1 1 2 2 4 5 4 6 6 7 7 8 8 7 7 7 8 8 8 8 9 9 10 10 9 9 8 7 7 7 7 7 7 7 9 10 9 8 9 8 7
4 5 3 3 5 5 4 1 6 7 6 5 4 2 2 3 2 1 4 2 3 2 5 2 3 3 3 4 2 1 2 2 1 2 1 2 1 3 3 1 2 3 2 3 2 1 1 0 2 3 4 6 7 7 7 7 7 7 7 7 7 7 8 7 7 7 7 8 9 9 8 8 8 6 6 6 7 7 7 7 9 9 9 7 7 8 7
Wind_Direction
231 229 223 227 230 230 230 230 223 214 169 190 208 210 212 203 223 74 282 198 186 176 201 202 207 216 220 224 229 216 167 206 181 173 185 199 211 187 205 199 191 207 210 180 176 151 257 200 214 304 266 273 267 49 62 79 174 188 26 15 323 66 226 217 239 223 93 85 117 73 7 297 271 255 250 228 221 213 225 237 271 227 182 212 235 244 270
230 228 222 222 224 228 228 227 223 216 172 211 190 204 215 209 223 150 75 233 202 185 196 201 211 219 214 210 222 211 225 203 189 193 181 195 187 212 202 210 207 214 192 192 200 159 228 210 223 264 240 263 87 92 279 148 219 194 220 228 140 184 192 222 222 229 209 187 150 223 142 214 236 227 222 233 253 257 323 53 70 256 224 233 227 243 249
231 227 227 224 217 221 224 220 219 220 192 203 213 201 206 216 226 255 142 54 221 206 208 214 207 208 207 201 216 204 218 226 215 198 201 192 203 187 218 213 202 217 189 204 202 180 194 224 209 231 232 247 111 173 172 192 240 215 81 90 179 214 208 175 204 217 221 216 207 217 196 204 212 238 243 225 217 211 154 226 199 240 229 239 232 247 254
227 227 225 223 220 216 215 217 217 219 210 203 209 222 202 200 199 183 208 192 282 275 309 310 236 208 203 213 220 219 223 204 219 217 221 201 205 209 208 202 215 211 199 208 213 207 200 218 199 202 226 235 117 179 184 192 202 46 106 136 137 167 284 212 209 223 233 241 264 61 118 134 193 212 220 226 227 221 217 233 234 228 237 243 237 248 261
232 225 224 222 222 218 213 213 214 216 211 198 193 228 235 203 235 167 185 168 249 247 235 236 246 221 190 209 195 215 220 216 202 201 224 207 212 209 219 209 197 214 217 218 221 221 216 211 235 210 217 223 181 120 112 207 128 71 54 10 95 85 240 225 233 235 243 252 258 257 164 180 200 211 218 217 216 212 211 215 229 228 247 251 239 236 243
233 231 223 221 220 216 211 211 209 210 208 190 189 212 206 220 221 227 192 192 188 203 224 218 222 231 204 215 190 209 211 212 214 187 220 209 207 212 213 217 210 211 212 212 223 214 223 217 222 226 219 186 145 167 190 211 154 135 106 319 142 143 238 238 249 261 263 268 273 275 283 275 256 227 216 214 213 215 212 224 233 231 230 244 245 245 244
235 229 226 220 217 217 213 209 207 205 203 186 202 212 212 237 252 226 206 217 220 219 214 192 212 216 211 220 213 210 207 210 209 200 194 215 213 208 213 212 217 218 215 213 224 213 216 219 220 217 203 210 178 202 175 204 125 126 89 77 351 145 234 252 241 261 268 269 266 266 264 268 270 267 265 254 225 210 211 221 225 227 236 243 252 259 258
239 230 228 223 216 213 215 212 208 204 192 185 200 218 209 202 210 199 225 257 232 207 215 195 192 214 212 222 215 217 212 215 206 206 195 195 215 203 226 222 211 217 222 221 225 221 223 222 221 209 219 226 215 230 219 180 58 187 162 138 245 152 232 212 229 244 261 260 264 270 262 259 265 265 265 260 258 253 222 220 227 234 243 246 248 251 259
239 238 227 221 215 213 213 210 207 205 184 194 205 214 223 239 215 256 210 216 220 224 208 200 199 201 205 219 223 219 219 221 210 212 201 209 198 199 214 220 226 219 222 226 228 228 231 232 241 243 224 235 215 219 188 210 185 166 133 141 167 158 257 94 184 231 243 253 252 259 261 256 257 263 258 256 249 241 238 232 221 225 235 240 244 251 255
243 238 230 222 221 214 209 208 206 206 186 192 193 221 212 233 262 254 250 232 204 212 211 213 199 216 203 210 213 209 215 219 210 222 212 218 225 215 214 221 222 229 227 228 234 243 248 250 261 287 341 331 334 303 299 305 260 200 188 171 161 174 183 198 184 230 238 253 239 248 265 266 241 237 242 238 238 242 244 237 229 224 225 235 235 239 244
251 238 236 235 227 213 210 207 204 205 196 197 199 213 210 205 199 200 214 238 222 211 210 213 212 211 201 209 225 223 232 222 216 216 201 204 219 227 227 223 219 231 232 216 66 52 13 354 351 343 302 293 279 270 274 275 230 218 192 188 192 184 191 213 184 236 233 246 253 247 255 243 233 220 232 229 233 231 234 239 234 231 214 227 233 250 256
252 245 232 226 226 224 214 206 204 205 202 204 201 204 204 201 212 202 196 221 227 210 213 213 209 214 220 214 218 218 218 219 220 216 229 188 216 213 211 215 215 232 94 91 48 37 22 326 336 307 281 272 269 254 240 249 251 246 235 224 180 193 206 233 220 233 238 249 247 245 237 236 232 239 239 230 235 236 234 235 238 239 233 233 240 247 250
253 253 236 228 226 221 217 206 207 205 205 204 199 210 197 196 201 197 204 216 225 211 213 219 217 221 223 229 219 216 221 223 218 216 225 221 176 188 206 219 215 171 109 93 86 59 64 268 299 271 273 286 280 276 262 252 250 238 237 233 234 215 205 216 232 232 254 249 228 247 230 157 214 250 244 232 231 232 235 243 245 246 245 240 234 235 243
251 249 247 235 227 227 221 214 211 205 206 203 205 205 196 183 181 196 204 209 225 225 223 230 222 221 219 221 218 212 195 146 128 184 201 186 200 180 149 106 178 99 78 91 94 153 229 159 272 234 220 181 227 245 245 247 244 243 238 232 228 226 232 219 241 202 238 228 240 247 310 297 275 271 244 214 216 207 213 242 242 236 237 236 241 244 241
251 250 247 241 230 228 216 214 214 209 206 203 205 204 204 186 185 196 205 220 226 224 216 223 212 211 210 208 202 188 179 180 159 182 178 112 202 224 187 141 97 103 115 186 135 169 203 253 244 224 244 231 234 250 175 242 213 225 227 227 221 222 228 196 235 222 218 236 250 254 247 247 242 237 249 243 227 229 217 227 251 243 242 229 237 241 249
250 248 247 243 233 231 223 216 212 209 210 203 203 205 199 193 190 192 204 208 214 229 217 223 227 217 214 211 207 197 195 195 204 196 161 207 200 143 247 241 138 157 186 163 196 189 192 216 234 238 239 239 281 285 222 202 245 209 210 214 217 214 216 224 227 236 213 221 233 239 241 241 230 256 252 252 246 240 244 247 254 221 256 241 238 246 250
247 246 245 243 239 233 223 214 215 213 207 204 197 198 204 188 195 191 188 201 215 232 211 213 217 239 223 204 199 214 208 208 193 204 212 217 191 140 98 60 159 191 186 179 193 204 221 229 239 250 254 154 117 221 281 290 270 218 93 219 216 210 209 212 227 226 235 241 238 239 228 259 252 273 272 296 279 250 217 253 258 210 242 251 251 253 262
247 246 245 242 241 236 228 218 211 210 211 206 200 190 198 189 193 190 193 193 209 232 232 183 193 208 214 210 211 206 206 216 206 220 242 200 136 157 149 140 101 277 218 215 198 215 229 233 232 231 240 215 225 349 241 202 245 215 164 194 201 214 220 215 223 225 232 234 247 258 255 256 265 268 278 51 154 185 230 238 350 354 327 329 312 294 284
247 245 244 241 237 233 232 223 211 210 210 208 199 202 201 185 190 196 191 195 198 226 212 209 211 223 229 230 239 209 210 200 195 202 208 232 215 161 133 178 219 193 178 209 206 220 216 227 226 237 247 230 184 231 210 231 232 255 214 186 250 263 240 227 220 225 230 232 241 242 268 260 208 280 334 90 134 228 244 359 316 302 330 321 329 338 343
244 243 243 241 237 236 231 226 213 210 205 207 196 200 190 184 189 194 193 197 200 226 217 209 198 217 217 220 202 197 158 193 202 205 207 205 83 111 135 194 203 171 193 180 216 216 225 225 217 217 231 239 238 244 247 248 260 234 126 200 255 244 242 221 221 228 232 229 240 244 243 309 56 337 306 146 228 309 360 301 320 333 309 316 312 314 320
242 241 239 238 240 236 234 223 218 210 204 204 191 191 191 183 186 196 205 202 193 210 219 197 208 217 220 219 224 219 209 210 194 204 211 226 153 165 184 201 186 175 203 185 202 206 203 226 223 227 235 239 224 222 238 251 240 223 235 244 249 167 258 249 243 191 249 230 228 237 83 104 356 37 226 323 300 337 335 354 311 313 314 307 310 304 294
242 239 240 239 239 237 232 225 218 208 205 202 190 189 194 184 190 193 199 204 211 214 253 179 177 215 221 225 226 227 227 226 220 211 213 203 196 219 240 63 1 173 194 205 191 224 219 235 240 228 230 230 223 242 234 247 246 194 215 191 248 163 238 238 261 184 220 255 274 103 126 301 277 224 243 245 280 297 297 290 275 287 295 300 279 295 299
242 237 236 234 235 236 233 226 222 214 204 202 189 189 186 173 181 181 178 196 208 129 95 118 151 212 295 280 17 28 11 5 314 231 226 231 219 204 228 241 238 143 357 355 225 228 249 234 236 243 244 239 244 251 233 236 258 235 243 179 243 329 54 40 335 292 311 264 251 277 283 272 280 251 226 275 272 273 268 265 282 275 281 289 275 287 294
239 238 238 233 229 233 228 222 216 211 209 201 186 183 192 180 170 161 171 196 196 198 183 183 179 207 204 215 207 187 234 247 227 232 360 237 229 226 220 229 229 50 49 49 17 329 275 241 247 294 257 254 285 244 245 242 236 244 261 254 235 253 28 327 252 295 283 271 138 177 251 288 306 306 261 223 225 250 268 243 225 252 275 283 265 267 283
237 235 236 233 230 228 229 221 217 213 208 201 188 194 175 167 169 168 166 175 184 195 209 185 213 204 199 205 180 197 214 212 179 195 194 206 228 234 238 236 245 233 233 155 112 213 248 269 254 239 255 244 252 261 246 261 265 218 256 246 259 237 232 309 287 283 261 287 331 327 322 291 262 274 300 297 299 294 237 230 251 265 279 279 269 279 275
234 234 236 232 230 230 228 223 217 215 208 196 182 175 178 177 174 173 172 145 85 179 204 217 198 141 132 174 196 198 167 168 178 203 207 212 220 233 237 135 193 58 184 110 150 229 243 249 245 253 255 257 211 234 247 248 271 311 269 259 268 317 344 268 277 283 268 284 286 285 279 273 276 267 262 267 277 286 285 279 284 291 291 291 283 210 248
230 230 234 231 227 231 228 220 213 211 206 195 182 175 180 180 168 169 178 168 151 181 213 224 183 95 194 202 195 192 165 187 201 207 217 218 222 222 228 241 231 182 144 195 213 227 233 247 239 247 231 244 262 251 257 256 233 243 254 252 248 259 240 260 272 270 274 268 280 306 298 303 293 300 299 294 282 269 277 284 287 288 289 281 273 276 229
227 229 232 230 226 228 226 218 212 211 203 187 173 179 168 168 181 186 178 174 170 175 176 193 182 160 114 236 198 177 186 199 203 204 211 212 210 214 221 225 226 228 215 211 225 217 222 229 235 238 259 269 272 257 227 254 270 259 247 250 241 247 245 254 253 255 265 281 273 273 280 281 281 285 284 286 294 286 275 273 278 286 286 287 274 278 278
225 228 229 229 225 225 226 217 207 211 199 176 161 155 156 177 171 179 183 181 66 108 110 129 109 140 174 193 154 173 191 196 204 208 207 206 204 215 221 223 220 219 216 209 229 235 225 230 230 234 226 188 228 254 249 246 239 245 236 234 235 240 233 243 250 263 267 272 278 277 271 274 282 280 284 286 290 296 292 284 286 280 281 284 275 247 265
226 227 223 222 222 224 224 215 207 201 183 153 142 104 136 123 183 176 189 181 182 121 129 150 162 187 89 56 142 175 171 193 201 203 206 205 210 215 219 218 219 218 212 217 212 230 233 244 229 225 221 115 199 245 243 248 251 252 251 250 246 249 238 238 244 252 265 265 272 276 279 281 283 287 287 290 287 274 273 277 284 286 284 283 278 279 267
225 225 221 219 217 219 221 213 202 189 159 151 152 152 157 156 180 186 181 187 186 176 171 154 152 113 111 21 88 163 168 172 194 204 208 212 212 213 213 207 221 204 213 198 220 232 224 221 218 221 195 211 218 233 236 252 258 259 249 251 255 264 269 267 253 245 255 265 270 275 278 283 290 289 282 282 281 226 232 248 268 271 271 282 274 269 275
221 221 219 217 218 217 218 207 196 175 154 160 176 186 190 196 171 167 169 160 138 184 183 172 150 141 164 134 97 357 156 154 160 170 191 187 179 178 172 192 189 187 193 200 212 219 219 232 234 225 212 198 200 252 235 244 250 250 251 254 260 270 282 289 286 277 272 273 283 288 287 279 270 269 280 290 287 227 227 258 269 277 282 275 270 270 264
217 219 217 213 217 215 212 203 177 156 170 156 64 77 106 108 130 147 147 132 120 214 234 181 161 160 174 176 107 336 142 126 145 165 185 188 181 153 164 179 198 178 205 221 208 211 214 213 224 240 230 198 226 220 245 240 245 253 259 266 274 292 297 289 288 282 278 313 351 314 295 296 296 296 302 315 304 285 276 275 282 294 296 292 285 281 274
213 216 213 211 212 211 204 185 164 154 146 141 159 72 133 133 139 145 139 127 98 95 25 156 148 149 143 97 129 165 165 159 173 177 192 165 189 164 180 149 192 184 207 199 226 230 236 224 218 236 246 213 212 248 248 247 244 253 259 266 356 4 320 298 277 291 9 4 343 325 302 303 307 304 296 282 276 274 272 270 295 296 284 280 276 273 284
209 208 207 207 209 203 186 169 155 144 157 158 136 35 147 139 143 146 146 154 141 163 131 314 179 154 131 138 191 160 196 182 175 179 194 152 162 185 171 149 176 189 200 156 235 221 231 225 208 232 235 235 232 239 245 250 253 259 281 23 21 349 2 332 304 6 333 336 326 315 307 299 296 291 287 294 303 314 330 322 305 288 286 279 280 291 296
206 202 202 199 196 186 167 141 145 144 144 165 144 164 150 144 144 130 102 54 96 141 150 177 164 176 159 165 172 153 141 172 170 122 170 116 114 237 210 193 208 203 93 153 213 204 226 195 205 244 229 237 233 232 251 342 322 45 54 37 24 28 345 310 303 318 315 310 307 293 303 338 334 317 317 314 326 345 344 329 312 282 269 279 285 290 281
205 197 184 176 165 93 104 141 117 157 157 136 139 127 109 89 57 83 57 58 355 325 160 156 173 187 176 163 96 132 153 168 163 132 172 146 168 162 178 200 222 169 117 199 219 225 228 204 226 241 227 228 239 58 49 38 27 17 28 20 350 347 324 312 317 311 312 310 314 343 13 332 328 335 334 327 331 335 332 328 331 332 321 306 298 291 278
193 180 153 137 120 131 76 51 151 123 116 121 110 86 52 102 123 117 106 112 292 58 345 128 169 153 90 131 141 167 143 162 136 152 161 183 142 152 191 200 224 185 210 222 228 185 232 216 229 231 246 216 70 72 45 51 46 54 23 11 344 327 321 317 325 332 329 326 319 335 339 335 319 329 348 321 328 322 312 311 314 314 313 308 302 295 294
156 134 118 124 131 148 155 158 137 120 114 101 32 93 48 203 119 111 138 125 112 122 189 142 158 150 154 148 108 119 173 146 141 164 163 193 151 186 144 166 227 153 233 235 231 142 203 207 228 222 245 174 158 83 34 39 44 40 18 355 342 326 322 316 318 312 290 270 285 299 279 289 304 306 316 308 303 296 291 301 308 313 314 308 307 307 296
136 141 127 93 80 94 100 131 125 114 106 77 11 89 100 347 125 146 121 94 79 113 131 174 161 156 183 162 141 173 239 164 165 181 175 142 181 191 177 148 235 124 216 215 213 122 194 211 206 214 244 230 140 59 23 10 358 9 358 345 334 329 318 309 305 301 295 289 287 285 283 278 279 281 294 300 301 301 307 306 301 304 307 305 308 307 300
115 90 97 104 125 118 106 114 38 64 87 123 88 79 105 61 12 91 112 98 98 167 342 167 115 132 132 165 154 154 137 59 27 50 139 156 162 117 147 175 191 115 222 210 185 106 200 232 229 222 235 77 80 14 358 353 348 339 342 329 331 318 320 307 302 303 301 297 293 288 285 282 281 281 280 281 283 283 286 295 301 302 303 303 308 303 304
138 113 109 103 100 113 112 44 42 87 68 23 106 83 100 94 88 60 20 132 164 145 205 173 169 171 170 168 153 106 96 40 104 137 156 172 194 148 205 111 18 167 218 185 78 190 200 221 215 230 110 115 53 18 352 349 338 334 327 334 324 321 312 308 302 300 298 295 294 291 289 293 290 287 284 285 284 283 287 293 295 299 298 294 295 295 302
97 99 103 103 104 54 200 89 337 111 116 89 94 74 85 112 122 124 146 100 5 131 146 27 37 77 17 60 53 23 115 160 144 139 163 158 99 56 143 115 105 186 220 69 152 205 193 218 232 234 86 145 51 313 10 324 326 315 318 320 319 314 311 304 304 299 301 300 296 297 296 296 291 286 289 290 289 286 283 282 287 294 297 297 295 296 300
92 92 85 50 94 26 122 107 207 80 59 11 130 141 142 103 166 113 120 177 161 163 173 154 172 150 152 132 132 130 118 84 199 102 64 57 108 177 120 190 204 232 58 326 199 214 226 225 236 86 129 40 78 6 344 328 320 314 309 318 320 317 315 314 309 311 309 307 302 301 301 295 293 293 292 289 290 291 297 297 295 296 297 298 294 295 298
110 55 79 77 61 322 72 61 312 107 123 132 101 126 154 159 165 173 167 99 120 162 145 156 153 145 126 119 72 31 143 150 142 135 192 146 131 174 145 206 137 121 169 219 191 242 6 246 114 153 75 353 351 344 329 321 317 312 309 314 319 325 322 318 318 316 312 311 309 312 306 304 301 299 298 296 298 297 299 303 310 310 306 304 297 301 315
86 110 90 98 82 349 76 98 55 74 305 66 130 158 160 146 136 123 48 268 124 131 146 159 147 117 102 358 127 154 127 132 128 166 111 110 141 195 166 46 55 147 187 225 222 218 228 181 99 63 34 335 326 326 327 318 323 320 331 320 323 321 317 316 315 313 309 308 310 309 306 305 307 307 305 304 305 305 308 309 315 311 310 303 300 310 317
80 39 81 70 88 76 45 113 170 22 14 30 43 6 47 70 41 74 52 327 78 56 68 8 79 120 131 139 107 38 73 124 129 154 104 131 180 148 32 141 203 186 183 216 223 233 219 124 155 47 353 334 323 325 323 326 326 331 320 315 313 315 318 317 314 313 309 311 307 307 303 307 308 308 307 309 311 315 314 317 315 315 307 296 301 307 324
80 55 80 79 99 94 89 19 110 108 26 46 35 36 51 152 106 75 16 354 333 288 135 130 107 98 75 8 51 135 115 182 105 250 200 148 55 48 132 161 221 228 211 203 228 164 92 92 111 25 336 336 319 321 325 328 327 324 321 314 314 316 318 317 314 314 316 315 310 306 304 305 306 308 311 310 313 317 326 323 321 317 313 312 316 326 349
72 50 71 103 77 68 59 111 127 76 46 39 37 29 51 78 73 66 358 330 323 53 327 98 119 115 105 58 95 126 148 203 151 178 97 69 156 189 161 203 188 228 229 212 233 96 89 77 62 349 304 312 315 315 313 317 315 316 316 315 316 314 314 311 313 312 315 311 307 309 310 312 312 310 312 316 315 319 327 327 329 328 332 334 335 341 4
45 33 21 55 84 21 34 136 75 85 94 73 42 58 43 78 88 52 347 334 325 300 187 90 35 77 105 118 95 65 125 157 140 98 99 189 186 145 100 217 211 209 211 105 120 118 82 40 26 356 345 329 319 319 322 317 321 315 312 309 312 313 311 313 316 319 317 316 315 317 316 320 321 324 324 326 321 314 320 337 346 346 350 354 354 358 10
45 84 112 279 31 88 272 171 151 144 143 114 76 43 30 62 74 83 10 349 305 261 166 133 142 117 120 60 111 126 193 138 131 189 177 189 151 171 201 225 214 129 85 73 79 107 93 21 8 346 340 332 336 331 326 321 320 313 315 317 317 315 313 314 317 319 321 320 323 325 328 330 330 328 326 328 326 331 339 354 6 4 5 7 13 8 10
45 61 37 30 35 30 354 336 24 44 60 87 86 23 19 89 29 353 331 336 309 193 142 139 112 110 115 158 180 108 57 65 171 69 168 245 141 191 204 203 81 102 120 131 118 88 72 42 35 354 339 336 337 335 329 322 320 322 332 331 325 322 323 326 325 326 325 327 326 330 332 337 343 340 346 358 3 5 7 3 3 5 9 13 11 14 19